Roanoke, VA

10:56 AM EDT on March 25, 2017 (GMT -0400)
Roanoke Regional-Woodrum

Weather History for KROA - May, 2013

Change the Weather History Date:

Wednesday, May 1, 2013

  Actual Average Record
Temperature  
Mean Temperature 64 °F 61 °F  
Max Temperature 72 °F 72 °F 94 °F (1942)
Min Temperature 56 °F 49 °F 31 °F (1937)
Degree Days  
Heating Degree Days 1 6  
Month to date heating degree days 1 6  
Since 1 July heating degree days 3884 4038  
Cooling Degree Days 0 1  
Month to date cooling degree days 0 1  
Year to date cooling degree days 43 30  
Growing Degree Days 14 (Base 50)    
Moisture  
Dew Point 50 °F    
Average Humidity 64    
Maximum Humidity 93    
Minimum Humidity 35    
Precipitation  
Precipitation 0.02 in 0.11 in 1.92 in (1989)
Month to date precipitation 0.02 0.11  
Year to date precipitation 15.65 12.75  
Snow  
Snow 0.00 in - - ()
Month to date snowfall 0.0  
Since 1 July snowfall 18.3  
Snow Depth 0.00 in    
Sea Level Pressure  
Sea Level Pressure 30.31 in    
Wind  
Wind Speed 7 mph (ENE)    
Max Wind Speed 16 mph    
Max Gust Speed 21 mph    
Visibility 10 miles    
Events Rain    
T = Trace of Precipitation, MM = Missing Value Source: NWS Daily Summary

Daily Weather History Graph

Daily Weather History Graph

Search for Another Location

Airport or City:

Trip Planner

Search our weather history database for the weather conditions in past years. The results will help you decide how hot, cold, wet, or windy it might be!

Date:

Astronomy

May. 01, 2013 Rise Set
Actual Time 6:24 AM EDT 8:09 PM EDT
Civil Twilight 5:56 AM EDT 8:37 PM EDT
Nautical Twilight 5:22 AM EDT 9:11 PM EDT
Astronomical Twilight 4:46 AM EDT 9:48 PM EDT
Moon 1:17 AM EDT (5/1) 12:01 PM EDT (5/1)
Length of Visible Light 14h 41m
Length of Day
13h 45m
Waning Gibbous, 59% of the Moon is Illuminated
May 1
Waning Gibbous
May 2
Last Quarter
May 9
New
May 18
First Quarter
May 25
Full

Hourly Weather History & Observations

Time (EDT) Temp. Dew Point Humidity Pressure Visibility Wind Dir Wind Speed Gust Speed Precip Events Conditions
12:54 AM 60.1 °F 52.0 °F 75% 30.25 in 10.0 mi East 6.9 mph - N/A   Overcast
1:54 AM 57.9 °F 52.0 °F 81% 30.25 in 10.0 mi East 6.9 mph - N/A   Overcast
2:54 AM 57.9 °F 52.0 °F 81% 30.24 in 10.0 mi NNE 3.5 mph - N/A   Overcast
3:22 AM 57.2 °F 51.8 °F 82% 30.25 in 10.0 mi Calm Calm - N/A   Overcast
3:54 AM 57.9 °F 51.1 °F 78% 30.24 in 10.0 mi Calm Calm - N/A   Overcast
4:54 AM 57.0 °F 52.0 °F 83% 30.25 in 9.0 mi NE 4.6 mph - 0.00 in   Overcast
5:54 AM 55.9 °F 53.1 °F 90% 30.26 in 10.0 mi ENE 3.5 mph - 0.00 in   Drizzle
6:54 AM 55.9 °F 53.1 °F 90% 30.29 in 10.0 mi NE 6.9 mph - 0.00 in   Overcast
7:54 AM 55.9 °F 53.1 °F 90% 30.31 in 10.0 mi NE 4.6 mph - 0.01 in   Overcast
8:31 AM 57.2 °F 53.6 °F 88% 30.33 in 10.0 mi NE 6.9 mph - N/A   Overcast
8:54 AM 57.0 °F 53.1 °F 87% 30.33 in 10.0 mi ENE 4.6 mph - N/A   Overcast
9:10 AM 57.2 °F 53.6 °F 88% 30.34 in 2.5 mi East 4.6 mph - 0.00 in Rain Light Rain
9:27 AM 55.4 °F 53.6 °F 94% 30.35 in 8.0 mi Variable 5.8 mph - 0.01 in   Overcast
9:54 AM 57.0 °F 53.1 °F 87% 30.34 in 10.0 mi NE 5.8 mph - 0.01 in   Light Drizzle
10:51 AM 57.2 °F 53.6 °F 88% 30.36 in 10.0 mi NNE 8.1 mph - 0.00 in   Overcast
10:54 AM 59.0 °F 54.0 °F 83% 30.35 in 10.0 mi NNE 8.1 mph - 0.00 in   Overcast
11:54 AM 61.0 °F 53.1 °F 75% 30.35 in 10.0 mi NNE 9.2 mph - N/A   Overcast
12:54 PM 62.1 °F 52.0 °F 70% 30.34 in 10.0 mi NNE 4.6 mph - N/A   Overcast
1:54 PM 66.0 °F 52.0 °F 60% 30.33 in 10.0 mi North 9.2 mph - N/A   Scattered Clouds
2:54 PM 66.0 °F 51.1 °F 59% 30.31 in 10.0 mi Variable 3.5 mph - N/A   Overcast
3:54 PM 69.1 °F 50.0 °F 51% 30.28 in 10.0 mi ENE 8.1 mph - N/A   Mostly Cloudy
4:54 PM 69.1 °F 48.9 °F 49% 30.29 in 10.0 mi East 6.9 mph - N/A   Overcast
5:54 PM 68.0 °F 39.9 °F 36% 30.30 in 10.0 mi East 12.7 mph - N/A   Overcast
6:54 PM 66.9 °F 39.9 °F 37% 30.31 in 10.0 mi East 11.5 mph - N/A   Overcast
7:54 PM 64.0 °F 43.0 °F 46% 30.32 in 10.0 mi ESE 9.2 mph - N/A   Overcast
8:54 PM 62.1 °F 46.0 °F 56% 30.34 in 10.0 mi East 10.4 mph - N/A   Overcast
9:54 PM 61.0 °F 46.0 °F 58% 30.37 in 10.0 mi ESE 10.4 mph - N/A   Overcast
10:54 PM 60.1 °F 46.0 °F 60% 30.38 in 10.0 mi ESE 10.4 mph - N/A   Overcast
11:54 PM 57.9 °F 46.0 °F 65% 30.38 in 10.0 mi East 6.9 mph - N/A   Overcast